NPV4227 LIRF-LEBL

Flight info

Callsign NPV4227
Flight time N/A
Altitude 39000
Route ESINO DCT ABIDU DCT EPIKU/N0474F400 DCT GINOX DCT KIFMI DCT ELVOP DCT MUREN DCT CHELY DCT VERSO
Aircraft B788/H-SDE1E2E3FGHIJ2J3J4J5M1RWXY/LB1D1

Departure

Time 2026-05-06 18:50
Airport Rome–Fiumicino Leonardo da Vinci International Airport (LIRF)

Arrival

Time N/A
Airport Josep Tarradellas Barcelona-El Prat Airport (LEBL)
Time Latitude Longitude Altitude Speed Heading
2026-05-06 18:06 41.79653 12.24602 21 ft 0 kts 69°
2026-05-06 18:33 41.79648 12.24583 24 ft 2 kts 67°
2026-05-06 18:33 41.79641 12.24563 23 ft 2 kts 62°
2026-05-06 18:34 41.79631 12.24545 24 ft 2 kts 49°
2026-05-06 18:34 41.79617 12.24536 25 ft 2 kts
2026-05-06 18:34 41.79608 12.24538 24 ft 0 kts 345°
2026-05-06 18:38 41.79611 12.24537 21 ft 3 kts 345°
2026-05-06 18:39 41.79654 12.24518 21 ft 10 kts 341°
2026-05-06 18:39 41.79744 12.24477 21 ft 17 kts 341°
2026-05-06 18:39 41.79855 12.24420 24 ft 8 kts 349°
2026-05-06 18:40 41.79923 12.24524 21 ft 12 kts 70°
2026-05-06 18:40 41.79955 12.24641 21 ft 15 kts 70°
2026-05-06 18:40 41.79983 12.24742 21 ft 6 kts 68°
2026-05-06 18:40 41.80010 12.24791 21 ft 3 kts 16°
2026-05-06 18:41 41.80045 12.24786 21 ft 7 kts 348°
2026-05-06 18:41 41.80098 12.24773 22 ft 0 kts 352°
2026-05-06 18:43 41.80127 12.24768 21 ft 8 kts 354°
2026-05-06 18:44 41.80174 12.24782 21 ft 4 kts 45°
2026-05-06 18:44 41.80195 12.24832 21 ft 9 kts 71°
2026-05-06 18:44 41.80207 12.24946 21 ft 16 kts 91°
2026-05-06 18:44 41.80216 12.25109 23 ft 18 kts 71°
2026-05-06 18:45 41.80259 12.25266 22 ft 18 kts 71°
2026-05-06 18:45 41.80302 12.25420 23 ft 18 kts 69°
2026-05-06 18:45 41.80345 12.25573 21 ft 17 kts 70°
2026-05-06 18:45 41.80385 12.25722 21 ft 17 kts 70°
2026-05-06 18:46 41.80427 12.25869 21 ft 17 kts 70°
2026-05-06 18:46 41.80468 12.26018 22 ft 17 kts 70°
2026-05-06 18:46 41.80511 12.26176 21 ft 19 kts 70°
2026-05-06 18:46 41.80559 12.26346 21 ft 20 kts 69°
2026-05-06 18:47 41.80589 12.26463 21 ft 20 kts 73°
2026-05-06 18:47 41.80630 12.26613 21 ft 23 kts 66°
2026-05-06 18:47 41.80686 12.26809 21 ft 22 kts 70°
2026-05-06 18:47 41.80729 12.26970 21 ft 17 kts 69°
2026-05-06 18:48 41.80753 12.27036 21 ft 5 kts 43°
2026-05-06 18:48 41.80779 12.27049 21 ft 3 kts 360°
2026-05-06 18:48 41.80814 12.27041 21 ft 6 kts 347°
2026-05-06 18:48 41.80856 12.27022 21 ft 7 kts 338°
2026-05-06 18:49 41.80901 12.26996 21 ft 9 kts 333°
2026-05-06 18:49 41.80949 12.26939 19 ft 10 kts 292°
2026-05-06 18:49 41.80940 12.26856 19 ft 9 kts 250°
2026-05-06 18:49 41.80902 12.26717 21 ft 36 kts 250°
2026-05-06 18:50 41.80718 12.26056 29 ft 110 kts 250°
2026-05-06 18:50 41.80389 12.24857 69 ft 158 kts 248°
2026-05-06 18:50 41.80099 12.23515 937 ft 145 kts 250°
2026-05-06 18:50 41.79708 12.22165 1245 ft 167 kts 239°
2026-05-06 18:51 41.79216 12.20684 1538 ft 189 kts 249°
2026-05-06 18:51 41.79163 12.18803 1858 ft 206 kts 267°
2026-05-06 18:51 41.79216 12.16894 2421 ft 206 kts 266°
2026-05-06 18:51 41.78904 12.15062 2863 ft 201 kts 235°
2026-05-06 18:52 41.78013 12.13685 3816 ft 194 kts 219°
2026-05-06 18:52 41.77014 12.12458 4881 ft 199 kts 221°
2026-05-06 18:52 41.75983 12.11184 5854 ft 200 kts 223°
2026-05-06 18:52 41.74964 12.09908 6981 ft 201 kts 221°
2026-05-06 18:53 41.73940 12.08637 8096 ft 204 kts 221°
2026-05-06 18:53 41.72878 12.07321 9105 ft 214 kts 222°
2026-05-06 18:53 41.71776 12.05947 10024 ft 217 kts 221°
2026-05-06 18:53 41.70567 12.04731 10767 ft 220 kts 201°
2026-05-06 18:54 41.69055 12.04027 11056 ft 245 kts 208°
2026-05-06 18:54 41.67582 12.02591 11256 ft 273 kts 217°
2026-05-06 18:54 41.65993 12.01052 11439 ft 299 kts 212°
2026-05-06 18:54 41.64103 11.99549 11590 ft 326 kts 208°
2026-05-06 18:55 41.62097 11.98063 12116 ft 336 kts 209°
2026-05-06 18:55 41.60069 11.96479 12949 ft 340 kts 210°
2026-05-06 18:55 41.58033 11.94837 13731 ft 344 kts 211°
2026-05-06 18:55 41.55969 11.93198 14434 ft 347 kts 210°
2026-05-06 18:56 41.53877 11.91563 15171 ft 350 kts 210°
2026-05-06 18:56 41.51770 11.89913 15883 ft 352 kts 210°
2026-05-06 18:56 41.49654 11.88245 16591 ft 355 kts 211°
2026-05-06 18:56 41.47521 11.86565 17293 ft 357 kts 211°
2026-05-06 18:57 41.45368 11.84877 17967 ft 360 kts 211°
2026-05-06 18:57 41.43194 11.83174 18590 ft 363 kts 211°
2026-05-06 18:57 41.41026 11.81433 19157 ft 366 kts 215°
2026-05-06 18:57 41.39138 11.79154 19706 ft 368 kts 229°
2026-05-06 18:58 41.37709 11.76315 20282 ft 372 kts 243°
2026-05-06 18:58 41.36746 11.73099 20796 ft 376 kts 248°
2026-05-06 18:58 41.35850 11.69819 21359 ft 377 kts 249°
2026-05-06 18:58 41.34962 11.66526 21883 ft 380 kts 249°
2026-05-06 18:59 41.34065 11.63211 22415 ft 382 kts 249°
2026-05-06 18:59 41.33156 11.59882 22926 ft 384 kts 249°
2026-05-06 18:59 41.32242 11.56537 23422 ft 386 kts 249°
2026-05-06 18:59 41.31324 11.53172 23851 ft 388 kts 249°
2026-05-06 19:00 41.30403 11.49799 24268 ft 389 kts 249°
2026-05-06 19:00 41.29475 11.46410 24671 ft 391 kts 249°
2026-05-06 19:00 41.28542 11.43010 25055 ft 392 kts 249°
2026-05-06 19:00 41.27923 11.40754 25299 ft 393 kts 249°
2026-05-06 19:01 41.26678 11.36220 25818 ft 395 kts 248°
2026-05-06 19:01 41.25731 11.32781 26214 ft 397 kts 248°
2026-05-06 19:01 41.24781 11.29335 26597 ft 398 kts 248°
2026-05-06 19:01 41.23826 11.25876 26993 ft 399 kts 248°
2026-05-06 19:02 41.22868 11.22407 27378 ft 401 kts 248°
2026-05-06 19:02 41.21904 11.18923 27781 ft 402 kts 248°
2026-05-06 19:02 41.20937 11.15435 28187 ft 404 kts 248°
2026-05-06 19:02 41.19964 11.11930 28579 ft 405 kts 248°
2026-05-06 19:03 41.18988 11.08416 28987 ft 406 kts 248°
2026-05-06 19:03 41.18007 11.04891 29418 ft 408 kts 248°
2026-05-06 19:03 41.17022 11.01358 29852 ft 409 kts 248°
2026-05-06 19:03 41.16032 10.97808 30236 ft 410 kts 248°
2026-05-06 19:04 41.15041 10.94261 30741 ft 406 kts 247°
2026-05-06 19:04 41.14060 10.90755 31231 ft 406 kts 247°
2026-05-06 19:04 41.13072 10.87234 31525 ft 408 kts 247°
2026-05-06 19:04 41.12079 10.83698 31846 ft 411 kts 247°
2026-05-06 19:05 41.11098 10.80195 32810 ft 396 kts 246°
2026-05-06 19:05 41.10132 10.76761 33130 ft 400 kts 246°
2026-05-06 19:05 41.09149 10.73288 33434 ft 403 kts 246°
2026-05-06 19:05 41.08165 10.69801 33778 ft 405 kts 246°
2026-05-06 19:06 41.07174 10.66290 34070 ft 408 kts 246°
2026-05-06 19:06 41.06177 10.62761 34327 ft 410 kts 246°
2026-05-06 19:06 41.05171 10.59214 34584 ft 412 kts 247°
2026-05-06 19:06 41.04159 10.55649 34838 ft 415 kts 247°
2026-05-06 19:07 41.03142 10.52068 35091 ft 417 kts 247°
2026-05-06 19:07 41.02463 10.49680 35256 ft 418 kts 247°
2026-05-06 19:07 41.01086 10.44847 35579 ft 421 kts 247°
2026-05-06 19:07 41.00048 10.41211 35799 ft 423 kts 247°
2026-05-06 19:08 40.99157 10.37491 36023 ft 427 kts 255°
2026-05-06 19:08 40.98699 10.33590 36238 ft 432 kts 263°
2026-05-06 19:08 40.98504 10.29611 36434 ft 434 kts 263°
2026-05-06 19:08 40.98303 10.25614 36658 ft 436 kts 263°
2026-05-06 19:09 40.98103 10.21603 36868 ft 438 kts 263°
2026-05-06 19:09 40.97905 10.17577 37076 ft 439 kts 263°